Location: Sungai Lasa
(2.4500°N, 113.4500°E)
Time: 03:19:11
(UTC+00:00)

SEDSat Delta rocket - Pass Details

Date: 03 February 2023
Orbit: 532 x 993 km, 31.4° (Epoch: 26 March)

Event Time Altitude Azimuth Distance (km) Brightness Sun altitude
Exits shadow 21:44:08 10° 234° (SW) 1,788 5.1 -14.1°
Reaches altitude 10° 21:44:10 10° 234° (SW) 1,775 5.1 -14.1°
Maximum altitude 21:48:13 81° 147° (SSE) 557 2.9 -13.1°
Drops below altitude 10° 21:52:32 10° 59° (ENE) 1,890 6.2 -12.1°
Sets 21:54:56 0° 58° (ENE) 2,850 7.1 -11.5°
